[[{"header":{"parameterUnit":"m.s-1","parameterCategory":1,"la1":30.2991,"la2":30.254,"lo1":-89.0895,"lo2":-89.0444,"dy":0.0017,"dx":0.0017,"nx":28,"ny":28,"refTime":"2023-08-16T03:00:00:Z","depth":0,"parameterNumber":2,"parameterNumberName":"U-component_of_WINDS"},"data":[0,0,0,0,0,0,0,0,0,0,0,0,0,0,0,0,0,0,0,0,0,0,0,0,0,0,0,0,0,0,0,0,0,0,0,0,0,0,0,0,0,0,0,0,0,0,0,0,0,0,0,0,0,0,0,0,0,0,1.1706,1.1706,0,1.1759,1.176,1.1761,1.1769,1.1769,1.1768,1.1768,1.1821,1.1823,1.1825,0,0,0,0,0,0,0,0,0,0,0,0,0,1.1608,1.161,1.1706,1.1706,1.1707,1.1759,1.176,1.1761,1.1769,1.1769,1.1768,1.1767,1.1821,1.1823,1.1825,0,0,0,0,0,0,0,0,0,0,0,0,0,1.1655,1.1611,1.1705,1.1717,1.1719,1.1759,1.176,1.1761,1.1769,1.1769,1.1768,1.1767,1.182,1.1823,1.1825,1.1857,0,0,1.1834,1.1835,0,0,0,0,0,0,0,0,1.1652,1.1659,1.1715,1.1717,1.1719,1.1757,1.1745,1.1793,1.1769,1.175,1.1768,1.1767,1.18,1.1805,1.1816,1.1859,1.1862,1.1834,1.1836,1.1837,1.1838,0,0,0,0,0,0,0,1.1649,1.1656,1.1727,1.1716,1.1718,1.1719,1.1725,1.1754,1.1778,1.1752,1.1752,1.1759,1.1801,1.1813,1.1818,1.1862,1.1834,1.1837,1.1838,1.1839,1.1933,1.1934,0,0,0,0,0,0,1.1644,1.1654,1.1725,1.1728,1.1683,1.1722,1.1728,1.1745,1.1778,1.1783,1.1759,1.1759,1.1809,1.1814,1.1819,1.1857,1.1837,1.184,1.1841,1.1932,1.1933,1.1934,0,0,0,0,0,0,1.1642,1.165,1.1723,1.1691,1.1701,1.1724,1.1743,1.1747,1.1759,1.1784,1.1788,1.1768,1.1809,1.1816,1.1847,1.1859,1.1841,1.1843,1.1931,1.1932,1.1933,1.1934,0,0,0,0,0,0,1.1639,1.1649,1.1662,1.1691,1.1702,1.175,1.1744,1.1748,1.1764,1.1764,1.1793,1.1797,1.1809,1.1843,1.185,1.1863,1.1846,1.193,1.1932,1.1933,1.1933,1.1935,1.1937,0,0,0,0,0,1.1635,1.166,1.1663,1.1671,1.1719,1.1751,1.1757,1.177,1.1765,1.1777,1.1793,1.1796,1.1857,1.1846,1.1854,1.1868,1.1929,1.1931,1.1933,1.1932,1.1935,1.1937,0,0,0,0,0,0,1.1631,1.1664,1.1667,1.1702,1.1724,1.1752,1.1768,1.1773,1.1796,1.1795,1.181,1.1817,1.1847,1.1861,1.1848,1.19,1.1893,1.1896,1.1889,1.1892,1.1894,1.1889,1.1848,0,0,0,0,0,1.1634,1.1658,1.1686,1.1714,1.1724,1.1745,1.1759,1.1768,1.179,1.1799,1.1818,1.1839,1.1863,1.1879,1.1902,1.1935,1.1941,1.1949,1.1951,1.1952,1.1955,1.1972,1.1975,1.194,1.194,1.194,0,0,1.164,1.1661,1.1676,1.1713,1.1731,1.1755,1.1752,1.1778,1.1795,1.1803,1.1834,1.1848,1.1873,1.1906,1.1921,1.1918,1.1966,1.1955,1.1956,1.1957,1.1974,1.1978,1.1981,1.1941,1.1941,1.1941,0,0,1.1664,1.1683,1.1708,1.1726,1.1753,1.1766,1.1772,1.18,1.181,1.1841,1.1847,1.1868,1.191,1.1927,1.1941,1.1971,1.1974,1.1979,1.1988,1.2005,1.2008,1.201,1.202,1.2023,1.1981,1.1981,1.1981,0,1.1668,1.1705,1.172,1.1745,1.1761,1.177,1.1794,1.1811,1.1844,1.1854,1.1851,1.1903,1.192,1.1956,1.1963,1.1975,1.1982,1.1975,1.2006,1.2009,1.2012,1.2021,1.2024,1.1981,1.1981,1.1981,1.1981,0,1.1708,1.1733,1.175,1.1782,1.18,1.1825,1.1843,1.1859,1.1866,1.188,1.1911,1.1933,1.196,1.197,1.1977,1.2006,1.2004,1.2003,1.1996,1.2015,1.2024,1.2027,1.1982,1.1982,1.1982,1.1981,0,0,1.1729,1.1769,1.1775,1.1789,1.182,1.1839,1.1864,1.1892,1.1905,1.1927,1.1948,1.1983,1.1982,1.1998,1.2008,1.2023,1.2044,1.202,1.2021,1.2023,1.2076,1.2075,1.2079,1.2046,1.2047,1.2048,1.2074,0,1.1755,1.18,1.1814,1.1852,1.1874,1.1884,1.1905,1.1926,1.1939,1.196,1.1975,1.1999,1.1997,1.2007,1.2022,1.2038,1.2054,1.2036,1.2065,1.2065,1.2057,1.2084,1.2084,1.2107,1.2077,1.2078,1.2079,0,1.1791,1.1814,1.1854,1.1881,1.1891,1.191,1.1936,1.1957,1.198,1.1989,1.2007,1.2015,1.2041,1.2033,1.2068,1.2056,1.2068,1.2078,1.2079,1.2081,1.2072,1.2086,1.2115,1.2118,1.2084,1.2084,1.2084,0,1.18,1.1842,1.1871,1.1883,1.1916,1.1929,1.1943,1.1966,1.1981,1.2004,1.2014,1.2039,1.2053,1.2072,1.2086,1.208,1.212,1.2114,1.2127,1.2126,1.2133,1.2133,1.2164,1.2144,1.2144,1.2144,1.2144,0,1.1827,1.185,1.1875,1.1893,1.1919,1.1936,1.1961,1.1976,1.1996,1.2016,1.2026,1.2044,1.2063,1.2084,1.2095,1.2122,1.2128,1.2135,1.2138,1.2134,1.2133,1.2141,1.2139,1.2145,1.2145,1.2144,1.2144,0,1.1841,1.1859,1.1891,1.192,1.1927,1.1945,1.1969,1.1987,1.2001,1.2026,1.2033,1.2054,1.2079,1.2096,1.2128,1.2136,1.2164,1.2167,1.2156,1.2157,1.2169,1.2167,1.2205,1.2211,1.2188,1.2189,1.2189,0,1.1856,1.1875,1.1905,1.1919,1.1934,1.1957,1.1973,1.1989,1.2005,1.2033,1.2047,1.2073,1.2094,1.2133,1.2152,1.2176,1.2179,1.2191,1.2182,1.2177,1.2177,1.2176,1.2177,1.2191,1.2192,1.2192,1.2192,0,1.188,1.1888,1.1911,1.1937,1.1956,1.1977,1.1997,1.2009,1.2029,1.2046,1.2072,1.2089,1.2121,1.2146,1.2173,1.2187,1.2192,1.2195,1.2199,1.2194,1.2186,1.2189,1.2158,1.2193,1.2193,1.2193,1.2193,1.2193,1.1895,1.1911,1.1935,1.196,1.1978,1.1997,1.2014,1.203,1.2053,1.2081,1.2089,1.2116,1.2138,1.2174,1.2189,1.2209,1.2208,1.2214,1.2216,1.2217,1.2216,1.2184,1.2214,1.2214,1.2214,1.2214,1.2214,0,1.1918,1.1934,1.1957,1.1986,1.2005,1.201,1.2034,1.2049,1.2073,1.2094,1.2115,1.2144,1.2168,1.2189,1.2214,1.2227,1.223,1.2232,1.2231,1.2234,1.2216,1.221,1.2229,1.2229,1.2229,1.2229,1.2229,1.2229,1.1933,1.196,1.1971,1.2007,1.2023,1.205,1.2063,1.208,1.2097,1.2129,1.215,1.2163,1.2184,1.2211,1.2233,1.2238,1.2247,1.2249,1.2254,1.2237,1.2235,1.2234,1.2227,1.2251,1.2251,1.227,1.227,1.2271]},{"header":{"parameterUnit":"m.s-1","parameterCategory":1,"la1":30.2991,"la2":30.254,"lo1":-89.0895,"lo2":-89.0444,"dy":0.0017,"dx":0.0017,"nx":28,"ny":28,"refTime":"2023-08-16T03:00:00:Z","depth":0,"parameterNumber":3,"parameterNumberName":"V-component_of_WINDS"},"data":[0,0,0,0,0,0,0,0,0,0,0,0,0,0,0,0,0,0,0,0,0,0,0,0,0,0,0,0,0,0,0,0,0,0,0,0,0,0,0,0,0,0,0,0,0,0,0,0,0,0,0,0,0,0,0,0,0,0,1.8399,1.8398,0,1.8302,1.8301,1.83,1.8226,1.8226,1.8225,1.8224,1.8119,1.8117,1.8115,0,0,0,0,0,0,0,0,0,0,0,0,0,1.8516,1.8514,1.84,1.8398,1.8397,1.8302,1.8301,1.83,1.8226,1.8225,1.8225,1.8224,1.812,1.8118,1.8115,0,0,0,0,0,0,0,0,0,0,0,0,0,1.8447,1.8514,1.84,1.8349,1.8344,1.8303,1.8301,1.8299,1.8226,1.8225,1.8224,1.8224,1.8121,1.8118,1.8115,1.8114,0,0,1.8105,1.8103,0,0,0,0,0,0,0,0,1.8451,1.8443,1.8358,1.8353,1.8346,1.8275,1.8304,1.8237,1.8227,1.8271,1.8224,1.8223,1.8172,1.8164,1.8148,1.8109,1.8105,1.8104,1.8102,1.8101,1.81,0,0,0,0,0,0,0,1.8456,1.8446,1.8361,1.8357,1.835,1.833,1.8319,1.8291,1.8228,1.8267,1.8261,1.8251,1.8168,1.8151,1.8145,1.8103,1.8104,1.8102,1.81,1.8098,1.8058,1.8059,0,0,0,0,0,0,1.8469,1.8451,1.8364,1.8358,1.8397,1.8328,1.8316,1.8299,1.8228,1.8216,1.8252,1.8248,1.8157,1.8149,1.8141,1.8135,1.8101,1.8098,1.8096,1.8057,1.8058,1.8059,0,0,0,0,0,0,1.8472,1.8462,1.8368,1.8403,1.8389,1.8327,1.8309,1.8298,1.8281,1.8217,1.8205,1.8247,1.8156,1.8146,1.8122,1.813,1.8096,1.8093,1.8056,1.8057,1.8059,1.8124,0,0,0,0,0,0,1.8476,1.8464,1.8464,1.8404,1.8388,1.8352,1.831,1.8297,1.8276,1.827,1.8209,1.8197,1.8155,1.8127,1.8118,1.8125,1.8091,1.8055,1.8057,1.8058,1.8121,1.8127,1.8133,0,0,0,0,0,1.848,1.8486,1.8465,1.8455,1.8388,1.8353,1.8343,1.8296,1.8277,1.8276,1.8235,1.8199,1.8131,1.8125,1.8115,1.8121,1.8054,1.8056,1.8058,1.8118,1.8126,1.8133,0,0,0,0,0,0,1.8547,1.8477,1.8453,1.8439,1.8403,1.834,1.8338,1.8306,1.8273,1.8268,1.8209,1.8195,1.8177,1.8147,1.8141,1.8116,1.8088,1.8088,1.8137,1.8144,1.815,1.8157,1.8088,0,0,0,0,0,1.8561,1.854,1.8479,1.8473,1.8456,1.84,1.8383,1.835,1.8309,1.8292,1.8249,1.821,1.8179,1.816,1.8128,1.8116,1.8101,1.8115,1.8121,1.8127,1.8127,1.8117,1.8122,1.8066,1.8066,1.8066,0,0,1.8588,1.8547,1.8537,1.8485,1.8453,1.8431,1.8388,1.8366,1.8349,1.8288,1.8263,1.8231,1.8182,1.8164,1.8153,1.8138,1.8139,1.8129,1.8134,1.8131,1.8119,1.8125,1.813,1.8067,1.8067,1.8067,0,0,1.8626,1.8594,1.8585,1.8553,1.8506,1.8469,1.8467,1.8409,1.8385,1.836,1.8314,1.8291,1.824,1.8207,1.8184,1.8209,1.8174,1.82,1.8232,1.8223,1.8227,1.8231,1.8238,1.8242,1.8201,1.8201,1.8201,0,1.8665,1.8632,1.8583,1.8565,1.8543,1.8489,1.8478,1.845,1.8393,1.8378,1.8362,1.8296,1.826,1.8232,1.8239,1.8222,1.8216,1.8206,1.8231,1.8234,1.8236,1.8243,1.8246,1.8205,1.8204,1.8204,1.8204,0,1.8682,1.866,1.8657,1.8606,1.8584,1.8569,1.8517,1.8499,1.8468,1.8432,1.8406,1.836,1.8318,1.8309,1.8278,1.8277,1.8268,1.8243,1.8213,1.8246,1.8251,1.8253,1.8209,1.8208,1.8207,1.8206,0,0,1.8759,1.8681,1.8681,1.8657,1.8601,1.8581,1.8564,1.8524,1.851,1.8473,1.8455,1.8413,1.8388,1.8362,1.8326,1.8318,1.834,1.8292,1.829,1.8302,1.8334,1.8353,1.8357,1.8317,1.8317,1.8317,1.8338,0,1.8787,1.8754,1.871,1.8691,1.8669,1.8617,1.8601,1.8564,1.853,1.8505,1.8466,1.8437,1.8408,1.8391,1.8381,1.8339,1.8345,1.8337,1.8298,1.8297,1.831,1.836,1.838,1.8402,1.8339,1.834,1.834,0,1.8815,1.8783,1.8762,1.8707,1.8696,1.8683,1.8642,1.862,1.8575,1.8551,1.8522,1.8483,1.846,1.8435,1.84,1.8396,1.8377,1.8354,1.8354,1.8347,1.832,1.8353,1.8407,1.841,1.8343,1.8343,1.8342,0,1.8872,1.8823,1.8804,1.8785,1.872,1.8712,1.8684,1.8639,1.8618,1.8582,1.8567,1.8529,1.8507,1.8478,1.8429,1.8415,1.8399,1.837,1.8377,1.8378,1.8375,1.8375,1.8425,1.8365,1.8365,1.8365,1.8365,0,1.8907,1.8896,1.8828,1.8817,1.8802,1.8751,1.8737,1.8705,1.8665,1.8645,1.8598,1.8579,1.8517,1.849,1.8452,1.8429,1.8419,1.8397,1.8387,1.8401,1.8404,1.8387,1.8384,1.8366,1.8366,1.8366,1.8365,0,1.8968,1.8922,1.8898,1.8839,1.8824,1.8816,1.8764,1.875,1.8714,1.8688,1.8679,1.8621,1.8588,1.8537,1.8487,1.8462,1.8444,1.8428,1.8459,1.8453,1.8462,1.8461,1.8502,1.8503,1.8444,1.8445,1.8445,0,1.8993,1.8983,1.8924,1.8908,1.8882,1.8857,1.8835,1.8783,1.8763,1.8711,1.8703,1.8666,1.8633,1.8582,1.8534,1.8495,1.8477,1.8494,1.8471,1.8485,1.8476,1.8476,1.8474,1.8499,1.85,1.8501,1.8501,0,1.9041,1.9019,1.8991,1.8955,1.8931,1.8899,1.8865,1.8854,1.8795,1.8773,1.8739,1.8714,1.8664,1.8628,1.8583,1.8552,1.8516,1.8509,1.8508,1.8522,1.854,1.8529,1.8473,1.8508,1.8508,1.8507,1.8507,1.8506,1.9083,1.9072,1.9029,1.8999,1.8968,1.8938,1.8921,1.8883,1.8854,1.8811,1.8782,1.8749,1.8703,1.864,1.8611,1.8583,1.8568,1.8567,1.8567,1.8567,1.8571,1.8546,1.8575,1.8574,1.8574,1.8574,1.8574,0,1.9129,1.9098,1.9071,1.9026,1.9002,1.8973,1.8933,1.8914,1.8887,1.8848,1.8818,1.8778,1.8742,1.8692,1.8652,1.8639,1.8621,1.863,1.8629,1.8622,1.8588,1.8592,1.8645,1.8645,1.8645,1.8645,1.8645,1.8645,1.9149,1.9129,1.9102,1.9065,1.9034,1.9003,1.8983,1.8953,1.8922,1.8881,1.8851,1.8819,1.8775,1.8732,1.8697,1.8682,1.8669,1.8683,1.8663,1.8632,1.8625,1.8619,1.8622,1.8681,1.8681,1.87,1.87,1.87]}]]